CAPE
0 0 0 0 0 0 0 0 0 0 0 0 0 0 0 0 0 0 0 0 0 0 0 0 0 0 0 0 0 0 0 158 853 801 928 770 879 695 808 893 581 1228 1516 2050 1839 1993 1973 1820 1730 1693 1572 1398 1349 1454 1580 1412 1315 1180 1444 1380 1335 1315 1262 1210 1190 1150 1116 868 830 750 698 565 704 400 573 639 644 651 657 692 722 743 692 598 526 520
0 0 0 0 0 0 0 0 0 0 0 0 0 0 0 0 0 0 0 0 0 0 0 0 0 0 0 0 0 0 0 48 884 863 877 706 607 598 785 786 598 901 2195 1914 1872 1977 1938 1826 1774 1659 1542 1492 1273 1391 1481 1186 1129 1238 1358 1390 1392 1358 1330 1204 1220 1128 1084 1094 916 753 768 660 614 345 530 596 682 592 616 693 768 754 654 586 519 455
0 0 0 0 0 0 0 0 0 0 0 0 0 0 0 0 0 0 0 0 0 0 0 0 0 0 0 0 0 0 0 0 788 973 787 730 729 708 632 499 578 1517 2287 2071 1853 1938 1919 1843 1671 1586 1513 1439 1183 1281 1185 933 847 1178 1283 1472 1449 1337 1366 1273 1089 1033 1157 1064 1007 917 822 746 566 351 458 470 642 632 568 630 710 764 630 526 537 694
0 0 0 0 0 0 0 0 0 0 0 0 0 0 0 0 0 0 0 0 0 0 0 0 0 0 0 0 0 0 0 0 929 1036 882 714 846 765 513 500 550 1379 2054 1990 1692 1698 1876 1814 1570 1488 1459 1352 1248 1145 1119 923 1279 1380 1491 1428 1459 1398 1363 1333 1203 1071 1029 980 1012 911 748 729 607 445 478 443 565 542 561 552 656 674 630 775 698 1099
0 0 0 0 0 0 0 0 0 0 0 0 0 0 0 0 0 0 0 0 0 0 0 0 0 0 0 0 0 0 0 0 0 1020 933 796 653 586 680 526 678 1125 1533 1665 1634 1548 1584 1733 1595 1374 1390 1208 1115 1029 974 703 1033 1289 1388 1425 1342 1332 1261 1238 1254 1175 1197 1126 897 749 683 633 571 626 412 468 546 625 481 449 541 595 647 874 982 1203
0 0 0 0 0 0 0 0 0 0 0 0 0 0 0 0 0 0 0 0 0 0 0 0 0 0 0 0 0 0 0 0 0 0 754 849 668 640 755 663 675 1090 1074 1455 1444 1473 1468 1489 1518 1104 912 1004 835 1005 982 703 886 1074 1338 1503 1352 1277 1195 1203 1311 1274 1100 1019 1066 811 672 620 491 508 443 489 506 490 486 532 521 527 575 840 968 1101
0 0 0 0 0 0 0 0 0 0 0 0 0 0 0 0 0 0 0 0 0 0 0 0 0 0 0 0 0 0 0 0 0 0 0 354 837 697 634 682 725 1281 1105 1109 1412 1477 1489 1425 1284 1134 1039 956 789 1033 1274 1218 1136 1291 1454 1540 1435 1415 1307 1310 1312 1219 1116 1005 983 920 770 631 516 473 438 480 403 380 444 578 629 614 646 811 1000 1110
0 0 0 0 0 0 0 0 0 0 0 0 0 0 0 0 0 0 0 0 0 0 0 0 0 0 0 0 0 0 0 0 0 0 0 0 450 672 644 611 1027 1319 1210 1119 1132 1354 1463 1333 1176 1053 1015 1099 1031 1537 1690 1468 1590 1758 1764 1574 1551 1610 1474 1431 1413 1290 1189 1080 988 908 749 571 526 504 474 504 473 392 514 652 603 658 732 775 934 1080
0 0 0 0 0 0 0 0 0 0 0 0 0 0 0 0 0 0 0 0 0 0 0 0 0 0 0 0 0 0 0 0 11 0 97 0 0 779 836 950 1397 1360 1471 1321 1176 1038 1256 1084 1054 1001 886 1021 1504 1794 1842 1729 1839 1873 1926 1820 1670 1630 1508 1420 1393 1267 1196 1100 997 905 763 644 551 565 514 525 549 497 646 743 650 637 736 730 749 728
0 0 0 0 0 0 0 0 0 0 0 0 0 0 0 0 0 0 0 0 0 0 0 0 0 0 0 0 0 0 42 45 302 435 515 471 532 436 985 1307 1710 1726 1636 1687 1429 1157 1174 987 1104 1059 869 858 1607 1885 1926 1927 1844 1873 1926 1871 1687 1549 1478 1336 1312 1154 1049 925 937 909 800 682 543 588 781 588 547 505 559 712 769 791 693 558 439 465
0 0 0 0 0 0 0 0 0 0 0 0 0 0 0 0 0 0 0 0 0 0 0 0 0 0 0 0 280 273 139 391 368 496 628 767 827 893 1126 1447 1687 1713 1890 1928 1649 1480 1428 1456 1535 1340 1073 801 983 1467 1664 1802 1859 1752 1829 1780 1560 1405 1329 1207 1240 1043 921 878 876 763 732 707 791 793 827 702 468 375 473 596 676 682 480 438 449 394
0 0 0 0 0 0 0 0 0 0 0 0 0 0 0 0 0 0 0 0 0 0 0 0 0 0 0 109 683 740 803 807 512 416 616 734 702 748 1062 1361 1641 1798 1901 1967 1771 1616 1530 1611 1562 1383 1100 784 828 1175 1374 1436 1407 1562 1720 1658 1513 1413 1374 1249 1170 1079 926 793 747 783 686 727 865 814 714 584 484 486 470 552 683 668 548 535 349 351
0 0 0 0 0 0 0 0 0 0 0 0 0 0 0 0 0 0 0 0 0 0 0 0 0 0 0 505 710 704 863 963 795 513 531 566 847 868 998 1108 1438 1469 1342 1892 1763 1546 1388 1345 1248 1120 948 840 877 1008 1131 1246 1298 1249 1393 1500 1382 1265 1248 1082 1103 1031 960 844 779 883 916 846 923 885 624 480 440 500 438 442 537 628 395 426 343 368
0 0 0 0 1 0 0 0 0 0 0 0 0 0 0 0 0 0 0 0 0 0 0 0 0 0 267 459 780 918 937 1081 1113 889 618 651 626 809 1354 1558 1587 1468 1497 2013 1907 1636 1376 1051 1001 1003 1081 973 794 767 824 1044 1227 1272 1089 1470 1388 1305 1161 1006 986 911 960 898 988 771 799 990 1075 875 705 603 525 456 510 451 422 426 407 388 404 584
0 0 0 0 0 0 0 0 0 0 0 0 0 0 0 0 0 0 0 0 0 0 0 0 0 7 329 623 916 886 1010 1102 1284 1256 1159 1078 1029 1065 1142 1410 1378 1262 1541 1285 1920 1712 1358 864 820 813 756 600 610 858 772 866 1094 1100 1189 1148 1274 1234 1211 1031 887 774 881 854 723 794 774 896 1056 924 1043 765 675 739 635 417 386 378 396 467 618 493
0 0 0 0 0 0 0 0 0 0 0 0 0 0 0 0 0 0 0 0 0 0 0 0 193 539 433 733 962 948 1058 1209 1303 1290 1313 1322 1122 806 932 1163 1348 1380 1157 1045 1046 1027 836 644 408 418 382 310 215 517 542 498 1040 973 1108 1067 1102 1160 1055 968 853 720 722 916 770 835 840 993 1055 1241 1316 1128 872 837 584 569 460 497 571 656 544 472
0 0 0 0 0 0 0 0 0 0 0 0 0 0 0 0 0 0 0 0 0 0 0 0 562 558 608 788 736 882 1142 1108 1225 1286 1302 1322 1267 1177 1033 1109 1170 1215 1101 1063 1017 894 832 747 584 520 337 374 372 392 746 663 802 1061 1184 1264 1036 953 1082 1019 830 809 796 681 742 666 900 876 1092 1288 1249 1196 980 789 853 842 709 731 707 586 584 504
0 0 0 1 2 0 0 0 0 0 0 0 0 0 0 0 0 0 0 0 0 0 0 0 300 378 616 569 675 948 1162 1139 1145 1144 1267 1205 1201 1214 1226 1141 1153 981 742 732 818 790 734 651 576 464 446 442 42 102 1063 794 738 689 984 1101 845 669 912 802 866 834 736 804 742 683 869 1038 1244 1092 1037 1015 860 880 975 866 804 758 696 646 547 382
1 0 0 2 2 2 2 0 0 0 0 0 0 0 1 0 0 0 0 0 0 0 0 0 109 378 68 378 298 761 967 984 995 1005 951 1050 1203 1162 1079 1124 998 920 862 809 638 702 606 575 633 521 172 350 381 393 430 143 250 464 710 666 598 424 602 778 768 868 817 837 796 833 957 786 846 610 541 619 795 1085 739 578 607 637 579 526 421 290
0 1 5 2 2 9 5 0 0 0 0 0 0 0 0 0 0 0 0 0 0 0 0 0 2 53 386 450 494 905 1013 946 914 930 782 918 855 709 672 767 786 691 656 616 656 657 659 610 687 546 473 367 488 600 610 704 823 555 162 748 622 609 775 944 830 768 874 789 771 1004 1004 818 653 635 453 662 837 792 528 435 413 428 439 381 316 276
1 0 0 0 1 4 8 0 0 0 0 0 0 0 0 0 1 0 2 0 0 0 0 0 38 99 387 341 506 674 756 753 934 785 754 741 720 770 748 730 647 655 666 679 667 650 568 535 495 517 608 667 651 514 394 343 246 479 368 475 609 862 900 817 866 754 848 765 882 1058 854 668 594 602 634 454 609 497 490 442 410 397 391 346 251 7
3 2 0 0 0 0 0 0 0 0 0 0 0 0 0 0 0 0 0 0 0 0 0 0 86 169 160 503 446 672 745 826 828 830 721 774 782 728 844 838 833 734 678 729 582 566 574 508 488 523 635 799 650 561 578 603 600 710 468 538 747 831 812 814 752 950 957 899 844 999 751 654 652 685 411 327 461 469 456 413 376 402 348 233 209 165
0 0 0 0 0 1 0 0 3 0 0 0 0 0 0 0 0 0 0 3 0 14 0 0 3 32 340 663 523 616 711 774 724 703 673 649 698 668 764 805 804 733 612 489 398 473 587 470 475 524 489 588 584 602 657 744 672 662 578 611 611 605 558 699 874 868 841 864 846 837 714 801 678 606 210 311 414 449 449 362 360 366 306 207 217 188
464 0 0 0 0 10 1 2 9 2 1 0 1 1 2 1 0 1 0 0 0 117 0 9 9 189 501 641 623 552 592 713 725 638 559 556 556 594 534 554 632 622 549 382 520 488 571 500 463 444 413 466 491 537 612 625 748 698 697 621 619 611 562 630 816 882 835 767 841 802 768 727 692 579 422 363 382 418 252 335 332 329 292 183 205 197
7 24 1 6 0 4 7 0 0 4 3 20 58 282 238 1 2 24 92 31 26 55 0 0 8 18 556 747 696 725 686 732 688 575 590 691 617 524 461 380 430 489 569 473 475 516 475 509 503 494 410 304 363 413 158 481 501 615 488 488 600 645 621 626 629 766 731 528 770 752 668 620 599 533 406 393 462 326 290 277 248 217 178 23 181 195
54 5 0 0 0 2 6 5 15 3 74 98 255 310 248 110 80 46 40 7 10 28 8 2 248 466 591 618 654 598 581 602 612 618 648 573 527 456 338 1 0 378 346 349 441 521 518 485 426 411 400 255 218 193 179 231 396 438 421 442 502 548 396 511 621 565 510 490 740 653 564 552 443 305 445 444 436 367 264 1 2 29 45 24 211 186
71 73 11 25 37 64 119 138 17 30 10 252 274 266 253 46 77 26 14 16 16 21 108 125 225 630 523 559 532 426 385 369 336 460 578 590 494 338 113 1 0 193 327 394 402 223 97 226 252 290 302 154 155 206 194 397 434 411 388 392 410 475 415 113 475 511 682 610 719 568 380 335 289 332 465 389 324 287 252 1 3 26 49 58 194 181
98 140 171 166 167 36 51 99 32 32 50 149 197 110 288 253 64 4 0 26 72 2 5 62 488 496 481 533 586 456 344 82 155 287 416 411 304 199 280 394 367 384 415 364 161 84 66 162 146 142 120 98 70 130 108 151 288 247 229 281 346 388 388 315 498 434 560 640 598 398 354 229 288 535 405 388 294 323 195 3 1 6 6 105 114 6
181 58 289 287 210 242 254 211 35 65 42 71 141 107 361 351 331 260 250 181 56 1 0 194 376 390 434 494 495 394 305 311 166 206 269 338 291 281 394 412 501 492 436 228 286 222 128 104 92 57 212 36 42 96 174 152 165 173 146 192 237 225 300 316 358 415 446 555 466 385 349 657 640 424 323 332 250 222 46 1 0 0 4 6 7 17
19 4 94 25 48 62 318 146 42 91 26 16 41 74 184 371 324 290 355 428 166 0 0 0 19 295 410 463 407 340 241 162 230 226 283 350 314 270 280 396 454 492 452 268 274 314 333 318 284 178 64 42 12 33 2 5 24 22 11 80 178 198 236 247 242 317 250 317 404 357 388 453 356 242 218 295 355 280 56 8 2 0 0 0 21 103
13 15 3 44 8 117 217 306 211 1 16 27 0 7 38 145 81 121 271 335 239 12 9 1 0 169 278 362 346 238 248 133 177 247 331 310 311 195 174 245 337 429 386 234 215 204 314 179 29 17 2 2 1 1 2 1 4 13 5 2 1 22 153 63 188 243 40 156 381 356 390 363 360 270 190 242 255 174 130 2 1 0 0 0 0 55
5 1 1 2 0 64 161 82 122 50 4 16 37 3 1 14 120 98 128 179 383 260 208 121 284 371 214 204 313 258 214 66 67 209 362 341 338 317 142 287 295 273 304 184 222 254 163 152 13 6 1 0 0 3 5 6 6 5 2 1 2 13 75 29 30 164 202 239 357 358 307 309 346 279 228 262 261 169 82 0 1 1 8 10 8 6
65 0 0 0 0 27 2 246 45 2 17 0 14 18 31 26 61 43 68 201 395 427 369 442 291 199 47 63 128 99 61 1 19 155 52 154 200 156 62 192 252 202 226 255 240 138 170 120 84 14 6 2 0 1 3 4 2 1 0 0 1 4 27 35 45 92 90 342 370 565 471 354 345 294 254 209 201 139 119 58 0 0 6 14 9 18
41 6 8 47 0 67 86 39 14 1 0 0 0 5 31 49 33 67 68 76 133 340 77 331 324 176 176 109 39 55 0 0 27 49 170 65 68 56 107 72 147 219 247 293 224 242 179 110 79 11 9 5 2 0 0 0 0 0 4 6 7 4 4 29 43 124 37 51 66 155 371 442 386 336 257 175 104 104 135 20 0 0 0 0 0 0
25 43 7 26 23 33 83 132 154 34 0 1 0 15 28 11 7 10 39 25 107 195 96 224 218 242 266 242 202 165 134 21 2 19 88 1 2 140 82 172 132 6 105 173 178 159 137 111 81 8 24 1 0 0 0 0 1 4 2 0 2 6 7 2 0 0 0 57 47 66 66 284 364 338 256 202 163 80 4 0 0 0 0 1 1 0
166 107 36 18 0 59 44 120 12 0 0 4 1 2 2 2 4 2 12 35 37 55 58 75 194 198 162 178 220 213 103 8 2 30 42 1 20 175 54 187 113 66 79 65 67 94 132 117 95 91 48 25 5 5 8 6 1 0 3 7 6 6 11 11 3 0 0 1 0 0 16 60 173 155 226 235 179 109 85 38 0 0 0 0 0 0
31 117 0 111 5 27 4 0 0 0 0 0 1 0 4 4 2 0 0 1 2 0 12 61 82 101 129 136 118 78 28 6 65 46 5 6 6 172 136 84 114 28 13 45 30 25 28 22 70 87 60 41 18 2 3 3 2 2 5 4 2 0 5 11 9 6 3 3 0 8 2 14 58 48 14 121 175 127 111 50 8 7 3 0 26 46
4 0 5 0 71 7 10 10 0 2 0 1 0 1 0 2 1 2 0 0 0 0 1 26 86 135 112 85 45 1 6 6 7 2 7 5 13 190 123 65 75 102 85 28 7 45 78 9 0 13 77 50 17 4 3 3 4 3 5 6 7 3 1 6 7 12 11 9 6 3 4 4 15 19 31 43 64 85 124 116 67 14 0 5 45 71
0 0 26 0 44 48 34 23 0 1 0 0 0 0 0 0 0 2 0 0 1 0 0 0 0 7 58 62 10 0 3 9 2 28 9 3 12 95 155 71 118 180 121 112 21 25 45 41 30 3 4 0 1 2 2 0 0 0 0 1 2 7 6 8 8 12 9 10 5 3 0 2 5 5 9 13 23 36 74 84 25 0 0 12 67 63
18 27 15 0 1 27 46 26 2 0 0 0 0 0 0 3 3 0 0 0 0 0 0 0 0 2 5 6 1 1 1 6 6 14 9 6 7 55 54 130 133 149 127 80 73 62 59 26 16 5 5 2 1 3 1 6 8 11 9 5 6 1 1 1 5 12 12 9 6 6 5 10 2 3 4 7 8 18 16 3 2 2 0 1 39 55
3 13 0 5 10 21 36 19 2 0 0 0 0 0 1 11 4 0 0 0 0 0 0 0 1 0 2 2 2 2 5 3 9 39 0 5 18 46 81 55 47 41 45 50 42 53 51 47 18 12 7 18 15 1 0 1 1 3 6 3 2 3 4 8 3 4 2 0 7 8 6 7 7 2 2 3 4 4 3 5 1 5 8 15 18 11
0 0 0 0 12 7 0 39 4 6 0 0 0 2 4 0 0 0 3 5 1 2 2 1 3 6 5 5 5 6 5 10 31 10 14 10 12 22 49 23 8 7 16 13 13 22 30 54 20 1 0 0 0 2 0 0 0 4 6 4 8 4 1 6 6 7 8 10 8 7 3 6 12 11 11 6 3 1 0 0 2 3 10 22 19 8
0 0 0 0 0 5 2 1 7 15 0 0 0 2 2 1 0 0 3 4 5 3 1 1 0 6 9 12 7 8 7 10 10 2 6 12 16 18 10 1 0 0 0 4 0 10 2 0 0 1 2 3 3 4 10 4 8 11 12 7 3 3 6 11 13 13 8 5 4 2 9 9 8 14 15 9 5 2 0 0 0 0 1 3 4 1
0 8 2 0 0 0 0 0 0 1 7 1 0 0 0 0 1 2 4 5 4 3 4 9 6 10 14 16 9 11 10 10 10 3 5 6 5 3 2 2 2 0 0 0 0 0 0 4 2 1 2 1 2 8 13 2 9 10 11 10 10 7 6 8 11 16 6 6 5 3 2 2 0 1 9 3 6 10 8 2 0 1 0 0 4 7
5 7 3 3 0 10 5 2 1 1 7 3 0 0 2 2 0 3 0 2 4 7 6 1 0 2 10 12 12 12 14 14 9 7 6 8 10 7 1 1 3 2 0 0 4 5 0 2 2 2 2 2 1 1 4 1 2 4 11 11 9 10 3 0 1 2 4 2 2 4 5 1 1 0 0 3 1 3 4 3 2 2 3 6 11 12
0 0 1 0 1 2 2 5 5 4 2 3 1 0 0 1 0 1 0 1 0 1 1 0 0 0 5 2 6 7 7 4 3 8 6 4 6 4 0 0 0 0 0 0 0 0 0 0 0 0 0 0 0 0 0 0 0 4 6 8 4 0 0 0 1 0 0 2 5 2 1 5 3 0 0 1 3 2 2 0 0 2 7 12 14 14
0 0 0 0 0 0 0 0 3 5 6 1 2 1 1 0 0 1 0 2 6 3 2 1 1 3 3 5 10 7 4 7 8 8 7 4 3 1 0 0 0 0 0 0 0 0 0 0 0 0 0 0 0 0 0 0 0 2 4 3 0 1 0 0 0 0 0 0 0 0 1 3 2 1 0 0 0 1 0 0 1 0 4 7 12 14
0 0 0 0 0 0 0 1 3 2 12 14 0 1 0 0 1 1 3 2 4 2 2 0 0 0 6 12 8 20 8 4 1 0 0 0 0 0 0 0 0 0 0 0 0 0 0 0 0 0 0 0 0 0 0 0 0 0 0 0 0 0 0 0 0 4 2 0 0 0 0 0 0 0 0 0 0 2 4 6 6 8 7 5 4 3
0 0 0 0 1 1 1 2 2 1 7 4 1 0 0 0 0 3 1 1 3 2 1 4 3 1 3 4 2 9 8 6 0 2 1 0 0 0 0 0 0 0 0 0 0 0 0 0 0 0 0 0 0 0 0 0 0 0 0 0 0 0 0 0 0 0 0 0 0 0 0 0 0 0 0 0 0 0 0 0 0 0 0 0 0 0
0 0 0 0 1 2 1 0 0 1 1 1 3 5 7 6 4 3 2 0 0 1 2 3 2 0 0 0 2 3 6 6 7 3 1 0 1 0 0 0 0 0 0 0 0 0 0 0 0 0 0 0 0 0 0 0 0 0 0 0 0 0 0 0 0 0 0 0 0 0 0 0 0 0 0 0 0 0 0 0 0 0 0 0 0 0
0 0 0 0 0 0 0 0 6 0 0 1 1 5 2 2 4 9 6 8 9 12 13 10 8 2 5 3 4 6 4 1 0 1 2 4 2 1 2 2 0 0 0 0 0 0 0 0 0 0 0 0 0 0 0 0 0 0 0 0 0 0 0 0 0 0 0 0 0 0 0 0 0 0 0 0 0 0 0 0 0 0 0 0 0 0
Wind_Speed
nan nan nan nan nan nan nan nan nan nan nan nan nan nan nan nan nan nan nan nan nan nan nan nan nan nan nan nan nan nan nan 34 37 35 31 32 31 30 29 27 31 30 27 27 31 33 34 37 37 34 31 28 24 28 33 30 20 10 10 9 11 9 7 9 14 18 20 21 20 19 17 13 13 13 12 14 16 18 16 16 15 15 15 15 14 14
nan nan nan nan nan nan nan nan nan nan nan nan nan nan nan nan nan nan nan nan nan nan nan nan nan nan nan nan nan nan nan nan 41 36 33 33 31 29 29 28 31 28 25 32 37 38 35 35 37 32 28 27 28 27 28 22 16 12 8 7 9 9 8 8 15 19 20 20 16 16 16 15 13 14 13 12 12 11 10 10 11 12 12 11 11 12
nan nan nan nan nan nan nan nan nan nan nan nan nan nan nan nan nan nan nan nan nan nan nan nan nan nan nan nan nan nan nan nan 33 39 37 37 33 29 28 29 32 31 28 30 34 35 34 35 34 29 25 21 23 24 18 17 15 11 7 5 9 9 9 11 15 16 18 21 19 18 17 16 13 9 10 11 9 9 10 7 6 8 8 8 10 11
nan nan nan nan nan nan nan nan nan nan nan nan nan nan nan nan nan nan nan nan nan nan nan nan nan nan nan nan nan nan nan nan 29 35 39 40 37 34 32 30 31 32 32 32 31 32 31 32 30 26 22 20 20 16 9 19 19 17 13 9 9 10 13 14 15 18 20 19 18 20 22 19 15 13 14 11 9 10 11 7 6 7 6 7 9 12
nan nan nan nan nan nan nan nan nan nan nan nan nan nan nan nan nan nan nan nan nan nan nan nan nan nan nan nan nan nan nan nan nan 27 33 36 38 37 33 29 31 33 31 30 29 29 29 29 28 25 21 21 23 17 8 20 22 23 23 17 13 13 13 15 16 21 17 18 16 20 22 19 18 18 16 14 13 12 11 9 7 7 6 6 9 11
nan nan nan nan nan nan nan nan nan nan nan nan nan nan nan nan nan nan nan nan nan nan nan nan nan nan nan nan nan nan nan nan nan nan 24 31 34 37 36 30 27 33 33 28 27 30 28 27 26 23 21 23 22 19 8 14 22 24 24 21 18 16 15 15 17 21 19 18 17 17 18 19 18 19 17 15 15 14 12 9 9 9 8 7 9 11
nan nan nan nan nan nan nan nan nan nan nan nan nan nan nan nan nan nan nan nan nan nan nan nan nan nan nan nan nan nan nan nan nan nan nan 26 33 36 38 35 34 35 32 26 26 28 27 24 25 21 20 23 25 18 14 11 16 21 23 22 19 18 17 17 18 19 19 18 18 17 16 16 16 18 15 15 14 14 12 11 11 9 8 9 12 15
nan nan nan nan nan nan nan nan nan nan nan nan nan nan nan nan nan nan nan nan nan nan nan nan nan nan nan nan nan nan nan nan nan nan nan nan 31 38 33 33 32 31 31 31 28 26 25 23 24 24 21 24 26 22 18 16 15 18 23 23 19 20 19 18 18 18 17 18 17 17 15 13 13 15 16 15 13 12 13 13 12 10 8 10 12 13
nan nan nan nan nan nan nan nan nan nan nan nan nan nan nan nan nan nan nan nan nan nan nan nan nan nan nan nan nan nan nan nan nan nan nan nan nan 38 33 30 26 26 30 33 29 25 22 20 19 21 22 21 24 22 20 18 17 19 23 23 21 21 20 18 19 19 17 16 16 16 17 15 11 13 15 15 13 12 13 15 14 11 9 9 10 11
nan nan nan nan nan nan nan nan nan nan nan nan nan nan nan nan nan nan nan nan nan nan nan nan nan nan nan nan nan nan nan nan 22 23 24 32 34 35 35 35 30 29 30 33 30 23 18 16 16 17 19 20 22 22 20 19 20 21 22 21 23 23 21 19 19 19 18 15 15 15 17 19 16 15 16 16 14 13 13 15 14 13 10 9 10 11
nan nan nan nan nan nan nan nan nan nan nan nan nan nan nan nan nan nan nan nan nan nan nan nan nan nan nan nan 19 23 15 14 20 30 28 30 36 38 40 37 30 29 29 31 31 25 20 17 17 17 17 18 19 20 20 19 21 21 18 18 23 25 23 20 19 19 18 16 15 15 16 18 18 17 18 17 15 14 13 13 13 14 13 12 11 11
nan nan nan nan nan nan nan nan nan nan nan nan nan nan nan nan nan nan nan nan nan nan nan nan nan nan nan 17 20 21 23 24 25 31 36 33 36 38 39 36 30 28 26 27 28 25 23 21 15 14 14 14 14 17 17 19 23 22 16 15 22 26 25 22 21 21 19 17 16 17 17 18 17 18 17 17 17 15 15 15 15 14 14 13 12 11
nan nan nan nan nan nan nan nan nan nan nan nan nan nan nan nan nan nan nan nan nan nan nan nan nan nan nan 18 20 25 27 28 30 30 31 33 35 38 39 36 33 32 29 24 24 26 26 24 20 17 18 17 14 13 17 24 28 27 21 18 21 26 27 25 25 21 19 18 18 20 19 19 18 17 17 16 17 16 17 16 16 14 13 13 15 15
nan nan nan nan nan nan nan nan nan nan nan nan nan nan nan nan nan nan nan nan nan nan nan nan nan nan 18 21 23 27 28 30 31 30 30 33 31 31 38 38 35 37 38 35 33 35 36 36 33 33 31 30 31 32 34 34 33 30 27 25 26 29 27 27 29 26 21 20 20 21 19 18 18 16 16 17 16 16 16 15 13 13 14 15 16 17
nan nan nan nan nan nan nan nan nan nan nan nan nan nan nan nan nan nan nan nan nan nan nan nan nan nan 20 19 22 29 33 32 31 32 30 31 33 33 34 36 35 35 37 37 38 39 37 37 36 31 27 31 32 37 38 37 36 32 29 27 27 27 26 27 32 30 22 21 23 20 17 15 16 15 16 15 15 15 14 13 13 13 14 16 16 17
nan nan nan nan nan nan nan nan nan nan nan nan nan nan nan nan nan nan nan nan nan nan nan nan 19 19 20 19 22 31 34 35 32 33 33 34 34 33 35 35 35 37 40 39 39 38 37 37 35 33 34 36 34 35 32 32 34 32 29 24 22 19 24 32 36 27 24 24 22 18 16 14 10 13 14 15 14 14 13 14 14 13 14 15 16 17
nan nan nan nan nan nan nan nan nan nan nan nan nan nan nan nan nan nan nan nan nan nan nan nan 23 22 22 24 27 31 34 33 32 32 33 32 31 33 34 36 38 39 41 42 38 34 33 32 31 32 34 36 33 35 36 33 28 28 24 22 22 23 31 34 30 27 26 25 24 19 16 12 10 12 14 14 14 13 13 14 14 15 15 17 18 18
nan nan nan nan nan nan nan nan nan nan nan nan nan nan nan nan nan nan nan nan nan nan nan nan 21 21 25 25 23 29 32 32 30 28 28 30 31 33 32 37 39 40 40 40 37 31 27 27 28 31 33 37 nan 33 36 34 30 26 29 32 35 37 32 26 27 28 27 25 23 21 18 18 17 15 16 15 14 13 15 16 18 18 19 18 19 20
nan nan nan nan nan nan nan nan nan nan nan nan nan nan nan nan nan nan nan nan nan nan nan nan 27 27 nan 26 25 25 28 29 28 28 30 29 30 32 32 34 36 36 36 36 34 31 29 28 28 31 33 37 39 35 33 33 30 30 33 31 34 37 26 24 26 26 25 20 20 19 19 21 19 15 16 16 15 17 18 20 21 23 22 20 20 22
nan nan nan nan nan nan nan nan nan nan nan nan nan nan nan nan nan nan nan nan nan nan nan nan nan nan 28 25 25 28 28 29 28 31 31 32 31 29 28 30 31 32 32 33 33 31 30 29 28 28 29 33 35 34 35 35 28 21 27 33 33 32 26 23 24 19 14 14 16 15 18 18 19 17 19 19 17 20 21 22 24 24 23 21 21 23
nan nan nan nan nan nan nan nan nan nan nan nan nan nan nan nan nan nan nan nan nan nan nan nan nan nan 24 24 26 25 25 27 31 33 30 30 30 28 27 26 27 29 30 31 31 31 31 30 29 27 25 27 31 33 34 36 31 22 9 19 24 26 29 30 25 19 17 16 15 15 19 19 20 21 20 18 10 21 22 24 24 23 22 22 22 nan
nan nan nan nan nan nan nan nan nan nan nan nan nan nan nan nan nan nan nan nan nan nan nan nan nan 25 26 29 27 24 22 28 33 33 31 30 29 27 23 24 26 27 28 28 29 30 29 29 28 28 26 24 29 34 36 36 29 28 23 16 18 23 27 28 26 22 19 20 18 18 20 22 21 21 19 17 14 23 23 23 22 21 21 20 20 23
nan nan nan nan nan nan nan nan nan nan nan nan nan nan nan nan nan nan nan nan nan nan nan nan nan nan 26 27 27 24 23 24 28 29 27 26 26 24 23 25 26 28 28 28 29 29 28 29 27 25 26 25 27 29 31 32 32 27 26 27 22 20 24 25 24 22 20 19 17 19 21 21 20 20 18 16 17 22 22 22 21 21 21 19 20 23
34 nan nan nan nan nan nan nan nan nan nan nan nan nan nan nan nan nan nan nan nan 24 nan nan nan 27 26 26 26 23 24 26 25 24 24 24 22 23 27 28 28 30 29 27 27 28 28 29 28 26 23 24 26 28 28 27 28 31 29 26 24 22 20 22 23 23 22 21 17 18 19 19 18 17 15 15 16 19 20 21 22 22 21 17 19 22
nan nan nan nan nan nan nan nan nan nan nan nan nan 35 31 nan nan nan nan nan nan nan nan nan nan nan 26 27 25 27 28 29 29 25 22 23 22 25 27 27 29 30 28 26 28 30 31 32 30 26 24 25 25 27 27 26 27 28 25 22 22 23 21 20 20 21 20 22 20 17 16 17 17 16 16 15 16 18 21 22 22 22 20 nan 18 20
nan nan nan nan nan nan nan nan nan nan nan nan 38 40 39 34 nan nan nan nan nan nan nan nan 31 30 31 30 28 26 26 27 28 27 25 24 23 24 26 nan nan 29 28 28 29 32 32 31 30 29 27 26 27 28 28 27 27 27 25 22 21 24 23 18 17 18 19 20 20 18 16 16 15 15 16 18 19 20 22 nan nan nan nan nan 18 20
nan nan nan nan nan nan 32 29 nan nan nan 39 39 43 41 nan nan nan nan nan nan nan 40 33 30 33 31 32 28 26 21 21 24 24 23 23 22 23 26 nan nan 28 28 28 28 27 nan 30 31 29 28 27 28 28 28 27 25 23 22 22 22 24 20 13 18 20 18 19 19 18 18 16 13 12 16 17 20 20 21 nan nan nan nan nan 20 21
nan 36 33 33 35 nan nan nan nan nan nan 39 40 40 45 40 nan nan nan nan nan nan nan nan 30 35 31 33 32 32 27 nan 23 23 23 23 24 25 26 26 27 27 27 27 28 nan nan 25 26 27 27 nan nan 28 27 25 22 21 20 19 19 20 19 14 14 17 20 20 20 20 18 17 13 13 16 17 20 21 21 nan nan nan nan 19 20 nan
34 nan 32 33 32 33 35 39 nan nan nan nan 42 42 44 40 41 38 35 37 nan nan nan 27 28 28 26 28 29 31 29 26 27 28 26 26 26 27 27 26 25 25 24 26 25 25 25 25 nan nan 25 nan nan nan 26 24 23 23 23 22 20 19 18 16 14 13 17 20 21 23 21 19 16 16 17 18 20 20 nan nan nan nan nan nan nan nan
nan nan nan nan nan nan 33 36 nan nan nan nan nan nan 42 41 39 39 38 38 37 nan nan nan nan 26 21 21 22 25 26 28 28 27 27 28 27 28 28 26 24 23 23 22 21 22 23 23 22 22 nan nan nan nan nan nan nan nan nan nan 22 20 16 15 15 14 17 22 25 27 25 22 19 18 16 20 21 21 nan nan nan nan nan nan nan 21
nan nan nan nan nan 34 33 35 40 nan nan nan nan nan nan 42 nan 41 38 39 41 nan nan nan nan 31 25 28 30 26 22 23 27 28 27 27 27 28 28 26 24 24 23 22 21 21 21 20 nan nan nan nan nan nan nan nan nan nan nan nan nan nan 16 nan 17 13 nan 25 25 25 23 23 19 17 19 21 24 25 26 nan nan nan nan nan nan nan
nan nan nan nan nan nan 35 nan 37 nan nan nan nan nan nan nan 40 nan 38 34 34 34 35 37 36 30 30 33 34 32 30 nan nan 25 24 25 28 28 28 27 25 25 25 24 22 22 21 20 nan nan nan nan nan nan nan nan nan nan nan nan nan nan nan nan nan 17 20 26 27 23 19 22 19 17 17 24 27 28 nan nan nan nan nan nan nan nan
nan nan nan nan nan nan nan 36 nan nan nan nan nan nan nan nan nan nan nan 37 33 32 36 31 31 31 nan nan 33 nan nan nan nan 28 nan 27 29 29 nan 28 26 25 25 23 22 21 20 20 nan nan nan nan nan nan nan nan nan nan nan nan nan nan nan nan nan nan nan 24 24 26 22 20 18 17 19 23 28 29 29 nan nan nan nan nan nan nan
nan nan nan nan nan nan nan nan nan nan nan nan nan nan nan nan nan nan nan nan 40 39 nan 33 32 31 29 28 nan nan nan nan nan nan 29 nan nan nan 29 nan 28 25 24 23 21 21 19 19 nan nan nan nan nan nan nan nan nan nan nan nan nan nan nan nan nan 24 nan nan nan 21 24 23 22 21 21 24 28 28 27 nan nan nan nan nan nan nan
nan nan nan nan nan nan nan 37 39 nan nan nan nan nan nan nan nan nan nan nan 42 41 nan 37 33 31 30 31 31 32 34 nan nan nan nan nan nan 29 nan 29 28 nan 25 24 22 22 21 21 nan nan nan nan nan nan nan nan nan nan nan nan nan nan nan nan nan nan nan nan nan nan nan 21 21 23 23 25 28 nan nan nan nan nan nan nan nan nan
27 28 nan nan nan nan nan 32 nan nan nan nan nan nan nan nan nan nan nan nan nan nan nan nan 34 31 31 33 32 31 33 nan nan nan nan nan nan 32 nan 31 28 nan nan nan nan nan 22 22 nan nan nan nan nan nan nan nan nan nan nan nan nan nan nan nan nan nan nan nan nan nan nan nan 20 25 26 25 27 29 nan nan nan nan nan nan nan nan
nan 26 nan 26 nan nan nan nan nan nan nan nan nan nan nan nan nan nan nan nan nan nan nan nan nan 34 32 31 30 nan nan nan nan nan nan nan nan 33 33 nan 30 nan nan nan nan nan nan nan nan nan nan nan nan nan nan nan nan nan nan nan nan nan nan nan nan nan nan nan nan nan nan nan nan nan nan 26 27 27 25 nan nan nan nan nan nan nan
nan nan nan nan nan nan nan nan nan nan nan nan nan nan nan nan nan nan nan nan nan nan nan nan nan 33 30 nan nan nan nan nan nan nan nan nan nan 34 34 nan nan 30 nan nan nan nan nan nan nan nan nan nan nan nan nan nan nan nan nan nan nan nan nan nan nan nan nan nan nan nan nan nan nan nan nan nan nan nan 22 21 nan nan nan nan nan nan
nan nan nan nan nan nan nan nan nan nan nan nan nan nan nan nan nan nan nan nan nan nan nan nan nan nan nan nan nan nan nan nan nan nan nan nan nan nan 33 nan 33 32 32 30 nan nan nan nan nan nan nan nan nan nan nan nan nan nan nan nan nan nan nan nan nan nan nan nan nan nan nan nan nan nan nan nan nan nan nan nan nan nan nan nan nan nan
nan nan nan nan nan nan nan nan nan nan nan nan nan nan nan nan nan nan nan nan nan nan nan nan nan nan nan nan nan nan nan nan nan nan nan nan nan nan nan 34 34 33 33 nan nan nan nan nan nan nan nan nan nan nan nan nan nan nan nan nan nan nan nan nan nan nan nan nan nan nan nan nan nan nan nan nan nan nan nan nan nan nan nan nan nan nan
nan nan nan nan nan nan nan nan nan nan nan nan nan nan nan nan nan nan nan nan nan nan nan nan nan nan nan nan nan nan nan nan nan nan nan nan nan nan nan nan nan nan nan nan nan nan nan nan nan nan nan nan nan nan nan nan nan nan nan nan nan nan nan nan nan nan nan nan nan nan nan nan nan nan nan nan nan nan nan nan nan nan nan nan nan nan
nan nan nan nan nan nan nan nan nan nan nan nan nan nan nan nan nan nan nan nan nan nan nan nan nan nan nan nan nan nan nan nan nan nan nan nan nan nan nan nan nan nan nan nan nan nan nan nan nan nan nan nan nan nan nan nan nan nan nan nan nan nan nan nan nan nan nan nan nan nan nan nan nan nan nan nan nan nan nan nan nan nan nan nan nan nan
nan nan nan nan nan nan nan nan nan nan nan nan nan nan nan nan nan nan nan nan nan nan nan nan nan nan nan nan nan nan nan nan nan nan nan nan nan nan nan nan nan nan nan nan nan nan nan nan nan nan nan nan nan nan nan nan nan nan nan nan nan nan nan nan nan nan nan nan nan nan nan nan nan nan nan nan nan nan nan nan nan nan nan nan nan nan
nan nan nan nan nan nan nan nan nan nan nan nan nan nan nan nan nan nan nan nan nan nan nan nan nan nan nan nan nan nan nan nan nan nan nan nan nan nan nan nan nan nan nan nan nan nan nan nan nan nan nan nan nan nan nan nan nan nan nan nan nan nan nan nan nan nan nan nan nan nan nan nan nan nan nan nan nan nan nan nan nan nan nan nan nan nan
nan nan nan nan nan nan nan nan nan nan nan nan nan nan nan nan nan nan nan nan nan nan nan nan nan nan nan nan nan nan nan nan nan nan nan nan nan nan nan nan nan nan nan nan nan nan nan nan nan nan nan nan nan nan nan nan nan nan nan nan nan nan nan nan nan nan nan nan nan nan nan nan nan nan nan nan nan nan nan nan nan nan nan nan nan nan
nan nan nan nan nan nan nan nan nan nan nan nan nan nan nan nan nan nan nan nan nan nan nan nan nan nan nan nan nan nan nan nan nan nan nan nan nan nan nan nan nan nan nan nan nan nan nan nan nan nan nan nan nan nan nan nan nan nan nan nan nan nan nan nan nan nan nan nan nan nan nan nan nan nan nan nan nan nan nan nan nan nan nan nan nan nan
nan nan nan nan nan nan nan nan nan nan nan nan nan nan nan nan nan nan nan nan nan nan nan nan nan nan nan nan nan nan nan nan nan nan nan nan nan nan nan nan nan nan nan nan nan nan nan nan nan nan nan nan nan nan nan nan nan nan nan nan nan nan nan nan nan nan nan nan nan nan nan nan nan nan nan nan nan nan nan nan nan nan nan nan nan nan
nan nan nan nan nan nan nan nan nan nan nan nan nan nan nan nan nan nan nan nan nan nan nan nan nan nan nan nan nan nan nan nan nan nan nan nan nan nan nan nan nan nan nan nan nan nan nan nan nan nan nan nan nan nan nan nan nan nan nan nan nan nan nan nan nan nan nan nan nan nan nan nan nan nan nan nan nan nan nan nan nan nan nan nan nan nan
nan nan nan nan nan nan nan nan nan nan nan nan nan nan nan nan nan nan nan nan nan nan nan nan nan nan nan nan nan nan nan nan nan nan nan nan nan nan nan nan nan nan nan nan nan nan nan nan nan nan nan nan nan nan nan nan nan nan nan nan nan nan nan nan nan nan nan nan nan nan nan nan nan nan nan nan nan nan nan nan nan nan nan nan nan nan
nan nan nan nan nan nan nan nan nan nan nan nan nan nan nan nan nan nan nan nan nan nan nan nan nan nan nan nan nan nan nan nan nan nan nan nan nan nan nan nan nan nan nan nan nan nan nan nan nan nan nan nan nan nan nan nan nan nan nan nan nan nan nan nan nan nan nan nan nan nan nan nan nan nan nan nan nan nan nan nan nan nan nan nan nan nan
nan nan nan nan nan nan nan nan nan nan nan nan nan nan nan nan nan nan nan nan nan nan nan nan nan nan nan nan nan nan nan nan nan nan nan nan nan nan nan nan nan nan nan nan nan nan nan nan nan nan nan nan nan nan nan nan nan nan nan nan nan nan nan nan nan nan nan nan nan nan nan nan nan nan nan nan nan nan nan nan nan nan nan nan nan nan
Wind_Direction
nan nan nan nan nan nan nan nan nan nan nan nan nan nan nan nan nan nan nan nan nan nan nan nan nan nan nan nan nan nan nan 277 286 295 293 297 296 295 298 296 290 291 286 275 270 272 273 274 278 285 293 299 296 289 285 287 296 315 302 270 273 279 285 263 253 252 257 266 269 281 299 295 293 294 273 258 258 260 256 256 256 255 252 250 246 241
nan nan nan nan nan nan nan nan nan nan nan nan nan nan nan nan nan nan nan nan nan nan nan nan nan nan nan nan nan nan nan nan 298 298 298 298 297 297 300 299 296 293 282 273 268 272 272 277 284 291 299 307 309 309 303 301 306 297 276 269 270 264 260 251 251 252 247 261 278 282 282 286 301 303 301 274 267 275 277 268 265 263 260 259 251 247
nan nan nan nan nan nan nan nan nan nan nan nan nan nan nan nan nan nan nan nan nan nan nan nan nan nan nan nan nan nan nan nan 298 303 306 304 301 296 296 298 293 292 293 276 268 269 273 278 285 293 300 305 313 320 313 281 279 301 297 279 284 277 260 252 248 249 249 252 258 253 256 267 265 263 261 260 275 282 274 279 282 271 277 270 255 251
nan nan nan nan nan nan nan nan nan nan nan nan nan nan nan nan nan nan nan nan nan nan nan nan nan nan nan nan nan nan nan nan 290 300 307 304 302 300 299 299 294 293 296 291 280 274 277 283 286 292 297 296 296 306 295 281 304 319 325 311 294 272 257 252 244 237 238 244 248 251 253 254 246 253 268 266 269 271 273 282 283 269 263 273 267 258
nan nan nan nan nan nan nan nan nan nan nan nan nan nan nan nan nan nan nan nan nan nan nan nan nan nan nan nan nan nan nan nan nan 282 295 299 304 304 300 296 297 300 298 294 283 278 279 285 293 300 304 299 301 308 316 297 305 315 325 317 293 263 254 251 248 252 265 278 274 256 258 262 258 255 268 271 268 276 280 283 274 271 263 266 260 247
nan nan nan nan nan nan nan nan nan nan nan nan nan nan nan nan nan nan nan nan nan nan nan nan nan nan nan nan nan nan nan nan nan nan 287 294 292 293 296 301 292 291 296 300 296 286 285 289 293 299 302 301 299 305 310 291 299 308 315 305 284 267 261 258 254 262 273 291 297 285 281 289 289 289 291 293 290 286 293 300 268 252 253 248 234 244
nan nan nan nan nan nan nan nan nan nan nan nan nan nan nan nan nan nan nan nan nan nan nan nan nan nan nan nan nan nan nan nan nan nan nan 284 281 290 301 297 293 291 288 280 272 276 281 286 295 304 304 300 299 308 307 277 282 298 303 299 284 274 267 260 261 270 278 289 296 299 298 294 296 299 291 281 282 290 287 276 270 256 249 249 256 258
nan nan nan nan nan nan nan nan nan nan nan nan nan nan nan nan nan nan nan nan nan nan nan nan nan nan nan nan nan nan nan nan nan nan nan nan 299 309 305 299 297 298 296 289 280 276 281 293 305 314 305 302 307 308 305 295 281 289 298 299 284 270 266 258 264 270 277 286 294 297 290 286 289 296 293 285 283 273 275 273 267 252 254 264 264 255
nan nan nan nan nan nan nan nan nan nan nan nan nan nan nan nan nan nan nan nan nan nan nan nan nan nan nan nan nan nan nan nan nan nan nan nan nan 299 303 301 295 288 282 282 286 289 293 303 307 304 301 303 306 302 304 301 289 282 294 293 275 268 265 260 267 266 267 277 292 296 286 276 274 285 286 283 275 274 268 269 263 264 259 253 244 236
nan nan nan nan nan nan nan nan nan nan nan nan nan nan nan nan nan nan nan nan nan nan nan nan nan nan nan nan nan nan nan nan 239 233 231 247 251 265 273 268 277 284 287 289 299 305 310 310 309 300 294 301 304 298 301 295 279 278 292 290 275 267 264 259 266 262 262 268 280 287 284 285 282 272 273 277 279 276 270 270 268 261 258 251 246 237
nan nan nan nan nan nan nan nan nan nan nan nan nan nan nan nan nan nan nan nan nan nan nan nan nan nan nan nan 256 253 251 246 238 240 229 230 248 260 270 280 293 300 296 293 300 309 311 308 305 298 304 307 295 289 292 289 280 273 287 286 275 265 260 258 261 261 262 262 271 277 279 280 286 285 277 273 272 273 270 272 263 256 250 238 238 241
nan nan nan nan nan nan nan nan nan nan nan nan nan nan nan nan nan nan nan nan nan nan nan nan nan nan nan 253 239 239 242 241 244 249 250 241 241 251 264 278 290 290 288 290 292 290 285 282 282 281 286 286 290 280 278 265 262 265 259 262 262 257 256 254 256 257 257 257 259 261 268 276 282 286 280 280 278 279 279 272 264 253 249 242 241 248
nan nan nan nan nan nan nan nan nan nan nan nan nan nan nan nan nan nan nan nan nan nan nan nan nan nan nan 262 257 242 240 242 242 247 253 256 255 254 258 263 267 262 265 273 263 252 246 244 240 236 232 226 232 248 250 242 242 246 240 236 244 249 252 253 251 254 258 255 253 252 256 259 267 273 273 270 271 268 270 269 267 265 260 250 251 248
nan nan nan nan nan nan nan nan nan nan nan nan nan nan nan nan nan nan nan nan nan nan nan nan nan nan 240 242 244 250 246 250 251 252 255 256 257 259 255 254 255 260 263 263 255 247 242 242 234 227 217 207 204 207 212 221 227 233 232 226 224 235 249 251 246 245 248 250 250 244 239 248 254 259 261 261 264 263 264 269 273 273 266 260 256 260
nan nan nan nan nan nan nan nan nan nan nan nan nan nan nan nan nan nan nan nan nan nan nan nan nan nan 245 239 241 246 247 247 251 255 257 254 254 258 259 261 262 260 262 264 265 264 264 267 265 254 245 234 221 218 216 215 219 223 229 226 225 233 249 254 247 247 250 246 249 245 242 234 244 250 256 260 263 268 272 274 279 273 267 261 260 268
nan nan nan nan nan nan nan nan nan nan nan nan nan nan nan nan nan nan nan nan nan nan nan nan 243 241 253 244 243 246 246 247 250 251 251 252 255 255 256 259 260 259 259 259 260 261 264 268 272 267 253 244 240 245 241 227 215 223 223 231 231 242 257 254 255 257 255 248 260 264 251 237 233 258 259 263 268 275 280 281 282 278 271 264 262 262
nan nan nan nan nan nan nan nan nan nan nan nan nan nan nan nan nan nan nan nan nan nan nan nan 244 238 241 243 243 248 248 246 248 249 249 251 254 258 260 260 257 257 257 255 254 254 257 264 270 268 265 262 251 246 246 234 224 233 226 234 232 234 243 248 265 277 272 271 276 273 271 263 268 286 285 282 281 284 281 283 282 278 270 264 260 261
nan nan nan nan nan nan nan nan nan nan nan nan nan nan nan nan nan nan nan nan nan nan nan nan 264 251 247 245 235 249 255 250 247 246 249 249 250 252 256 257 257 256 257 258 258 261 267 271 269 266 265 269 nan 251 252 242 221 238 250 253 248 233 235 244 257 261 264 268 271 281 285 290 297 296 287 278 282 274 274 273 273 269 267 268 266 264
nan nan nan nan nan nan nan nan nan nan nan nan nan nan nan nan nan nan nan nan nan nan nan nan 256 251 nan 253 240 247 255 253 246 247 249 249 252 257 261 260 260 259 258 258 258 260 263 264 265 266 263 260 257 253 246 242 238 223 225 239 252 257 243 236 243 246 253 260 270 275 280 285 286 271 263 267 258 260 265 266 267 267 266 265 265 264
nan nan nan nan nan nan nan nan nan nan nan nan nan nan nan nan nan nan nan nan nan nan nan nan nan nan 254 255 249 246 253 256 256 256 258 256 258 264 265 260 257 255 257 259 261 263 263 261 265 266 264 259 255 257 251 246 259 253 217 217 238 250 258 262 266 272 272 271 270 272 275 268 267 266 243 225 249 261 259 258 261 260 255 259 262 264
nan nan nan nan nan nan nan nan nan nan nan nan nan nan nan nan nan nan nan nan nan nan nan nan nan nan 253 262 261 261 259 263 266 264 261 261 261 260 260 258 254 253 255 257 259 261 259 259 262 260 259 255 248 250 244 241 274 310 278 223 231 254 264 269 272 271 273 281 289 282 284 285 279 277 272 263 240 269 263 258 257 252 250 254 261 nan
nan nan nan nan nan nan nan nan nan nan nan nan nan nan nan nan nan nan nan nan nan nan nan nan nan 246 251 258 267 268 265 268 273 271 262 259 261 259 259 257 255 253 254 258 261 259 255 251 254 257 256 252 246 248 249 246 260 301 318 296 255 240 255 269 276 279 279 279 284 282 286 289 284 290 288 275 252 263 262 258 254 249 251 260 261 259
nan nan nan nan nan nan nan nan nan nan nan nan nan nan nan nan nan nan nan nan nan nan nan nan nan nan 253 259 264 266 262 262 274 274 263 257 258 261 258 253 252 250 251 254 254 252 248 246 252 258 256 252 248 252 260 262 268 281 300 303 288 265 255 266 284 292 284 274 275 280 285 286 287 292 294 275 264 263 261 257 254 255 261 263 259 258
210 nan nan nan nan nan nan nan nan nan nan nan nan nan nan nan nan nan nan nan nan 247 nan nan nan 254 255 258 263 270 269 268 269 266 259 254 255 254 252 246 245 247 248 252 252 249 249 251 252 253 253 258 261 263 266 270 273 278 283 287 289 285 275 273 283 295 299 295 290 282 282 285 286 289 278 271 266 264 260 258 256 260 265 264 260 263
nan nan nan nan nan nan nan nan nan nan nan nan nan 204 210 nan nan nan nan nan nan nan nan nan nan nan 260 262 262 266 263 259 259 256 254 254 248 250 248 241 241 243 245 248 251 251 251 252 252 253 255 257 263 270 274 270 270 276 278 279 284 287 284 285 293 297 299 298 295 287 276 271 279 284 274 263 264 264 261 263 265 264 268 nan 258 260
nan nan nan nan nan nan nan nan nan nan nan nan 206 203 210 216 nan nan nan nan nan nan nan nan 249 249 263 266 268 272 268 256 254 258 255 252 251 250 251 nan nan 242 242 242 247 250 251 253 253 253 255 260 265 270 274 274 275 276 277 284 296 293 289 292 306 300 298 292 294 296 286 275 271 280 275 268 262 260 258 nan nan nan nan nan 256 260
nan nan nan nan nan nan 215 213 nan nan nan 212 207 208 208 nan nan nan nan nan nan nan 240 236 252 263 264 269 272 272 266 258 255 254 251 250 255 256 252 nan nan 245 245 245 247 251 nan 251 251 251 252 260 266 270 273 276 278 278 279 274 287 293 290 300 291 290 292 295 298 294 294 282 273 275 269 260 260 259 256 nan nan nan nan nan 253 257
nan 226 226 232 224 nan nan nan nan nan nan 216 221 212 210 215 nan nan nan nan nan nan nan nan 243 260 259 262 266 266 261 nan 254 255 253 249 251 251 251 249 246 244 245 246 244 nan nan 252 253 253 253 nan nan 267 269 270 273 280 280 280 282 291 295 287 284 294 295 299 295 289 285 277 264 266 259 250 249 254 254 nan nan nan nan 253 254 nan
222 nan 220 226 225 225 223 226 nan nan nan nan 230 223 217 214 222 229 230 233 nan nan nan 257 257 260 258 260 261 256 252 253 256 256 251 246 245 249 250 248 246 244 245 245 245 244 244 246 nan nan 251 nan nan nan 260 261 265 273 278 277 280 281 282 296 288 279 294 294 285 280 273 259 250 261 266 252 246 253 nan nan nan nan nan nan nan nan
nan nan nan nan nan nan 228 227 nan nan nan nan nan nan 225 225 224 229 230 225 244 nan nan nan nan 256 255 267 267 258 249 250 249 247 247 247 246 247 248 247 245 243 243 246 247 245 242 240 241 243 nan nan nan nan nan nan nan nan nan nan 268 268 269 273 268 279 298 289 276 268 260 244 239 250 252 246 244 250 nan nan nan nan nan nan nan 256
nan nan nan nan nan 232 233 232 234 nan nan nan nan nan nan 230 nan 228 232 228 235 nan nan nan nan 264 258 260 263 259 250 245 241 239 241 243 244 248 250 248 246 245 245 244 245 246 244 240 nan nan nan nan nan nan nan nan nan nan nan nan nan nan 260 nan 255 257 nan 269 266 268 247 230 227 240 247 237 236 244 246 nan nan nan nan nan nan nan
nan nan nan nan nan nan 231 nan 237 nan nan nan nan nan nan nan 231 nan 235 232 241 253 256 256 257 263 264 257 254 248 243 nan nan 245 245 244 244 246 251 250 246 243 242 240 239 241 242 241 nan nan nan nan nan nan nan nan nan nan nan nan nan nan nan nan nan 245 248 260 275 280 252 221 219 229 240 250 248 245 nan nan nan nan nan nan nan nan
nan nan nan nan nan nan nan 239 nan nan nan nan nan nan nan nan nan nan nan 235 236 246 255 256 254 256 nan nan 253 nan nan nan nan 240 nan 246 246 247 nan 251 251 248 246 243 242 240 240 242 nan nan nan nan nan nan nan nan nan nan nan nan nan nan nan nan nan nan nan 240 265 282 271 254 247 244 243 242 244 243 245 nan nan nan nan nan nan nan
nan nan nan nan nan nan nan nan nan nan nan nan nan nan nan nan nan nan nan nan 239 247 nan 246 248 251 250 246 nan nan nan nan nan nan 237 nan nan nan 248 nan 250 250 249 247 245 243 239 240 nan nan nan nan nan nan nan nan nan nan nan nan nan nan nan nan nan 249 nan nan nan 251 269 274 273 266 260 251 242 243 238 nan nan nan nan nan nan nan
nan nan nan nan nan nan nan 237 236 nan nan nan nan nan nan nan nan nan nan nan 242 246 nan 250 248 247 248 248 249 249 248 nan nan nan nan nan nan 241 nan 245 245 nan 246 246 243 241 237 235 nan nan nan nan nan nan nan nan nan nan nan nan nan nan nan nan nan nan nan nan nan nan nan 264 270 270 266 258 252 nan nan nan nan nan nan nan nan nan
238 242 nan nan nan nan nan 241 nan nan nan nan nan nan nan nan nan nan nan nan nan nan nan nan 258 258 256 255 251 249 251 nan nan nan nan nan nan 238 nan 242 241 nan nan nan nan nan 236 233 nan nan nan nan nan nan nan nan nan nan nan nan nan nan nan nan nan nan nan nan nan nan nan nan 257 256 249 249 248 244 nan nan nan nan nan nan nan nan
nan 244 nan 244 nan nan nan nan nan nan nan nan nan nan nan nan nan nan nan nan nan nan nan nan nan 260 261 257 257 nan nan nan nan nan nan nan nan 237 239 nan 240 nan nan nan nan nan nan nan nan nan nan nan nan nan nan nan nan nan nan nan nan nan nan nan nan nan nan nan nan nan nan nan nan nan nan 237 237 242 243 nan nan nan nan nan nan nan
nan nan nan nan nan nan nan nan nan nan nan nan nan nan nan nan nan nan nan nan nan nan nan nan nan 261 262 nan nan nan nan nan nan nan nan nan nan 238 238 nan nan 240 nan nan nan nan nan nan nan nan nan nan nan nan nan nan nan nan nan nan nan nan nan nan nan nan nan nan nan nan nan nan nan nan nan nan nan nan 241 239 nan nan nan nan nan nan
nan nan nan nan nan nan nan nan nan nan nan nan nan nan nan nan nan nan nan nan nan nan nan nan nan nan nan nan nan nan nan nan nan nan nan nan nan nan 241 nan 244 244 242 240 nan nan nan nan nan nan nan nan nan nan nan nan nan nan nan nan nan nan nan nan nan nan nan nan nan nan nan nan nan nan nan nan nan nan nan nan nan nan nan nan nan nan
nan nan nan nan nan nan nan nan nan nan nan nan nan nan nan nan nan nan nan nan nan nan nan nan nan nan nan nan nan nan nan nan nan nan nan nan nan nan nan 241 241 242 244 nan nan nan nan nan nan nan nan nan nan nan nan nan nan nan nan nan nan nan nan nan nan nan nan nan nan nan nan nan nan nan nan nan nan nan nan nan nan nan nan nan nan nan
nan nan nan nan nan nan nan nan nan nan nan nan nan nan nan nan nan nan nan nan nan nan nan nan nan nan nan nan nan nan nan nan nan nan nan nan nan nan nan nan nan nan nan nan nan nan nan nan nan nan nan nan nan nan nan nan nan nan nan nan nan nan nan nan nan nan nan nan nan nan nan nan nan nan nan nan nan nan nan nan nan nan nan nan nan nan
nan nan nan nan nan nan nan nan nan nan nan nan nan nan nan nan nan nan nan nan nan nan nan nan nan nan nan nan nan nan nan nan nan nan nan nan nan nan nan nan nan nan nan nan nan nan nan nan nan nan nan nan nan nan nan nan nan nan nan nan nan nan nan nan nan nan nan nan nan nan nan nan nan nan nan nan nan nan nan nan nan nan nan nan nan nan
nan nan nan nan nan nan nan nan nan nan nan nan nan nan nan nan nan nan nan nan nan nan nan nan nan nan nan nan nan nan nan nan nan nan nan nan nan nan nan nan nan nan nan nan nan nan nan nan nan nan nan nan nan nan nan nan nan nan nan nan nan nan nan nan nan nan nan nan nan nan nan nan nan nan nan nan nan nan nan nan nan nan nan nan nan nan
nan nan nan nan nan nan nan nan nan nan nan nan nan nan nan nan nan nan nan nan nan nan nan nan nan nan nan nan nan nan nan nan nan nan nan nan nan nan nan nan nan nan nan nan nan nan nan nan nan nan nan nan nan nan nan nan nan nan nan nan nan nan nan nan nan nan nan nan nan nan nan nan nan nan nan nan nan nan nan nan nan nan nan nan nan nan
nan nan nan nan nan nan nan nan nan nan nan nan nan nan nan nan nan nan nan nan nan nan nan nan nan nan nan nan nan nan nan nan nan nan nan nan nan nan nan nan nan nan nan nan nan nan nan nan nan nan nan nan nan nan nan nan nan nan nan nan nan nan nan nan nan nan nan nan nan nan nan nan nan nan nan nan nan nan nan nan nan nan nan nan nan nan
nan nan nan nan nan nan nan nan nan nan nan nan nan nan nan nan nan nan nan nan nan nan nan nan nan nan nan nan nan nan nan nan nan nan nan nan nan nan nan nan nan nan nan nan nan nan nan nan nan nan nan nan nan nan nan nan nan nan nan nan nan nan nan nan nan nan nan nan nan nan nan nan nan nan nan nan nan nan nan nan nan nan nan nan nan nan
nan nan nan nan nan nan nan nan nan nan nan nan nan nan nan nan nan nan nan nan nan nan nan nan nan nan nan nan nan nan nan nan nan nan nan nan nan nan nan nan nan nan nan nan nan nan nan nan nan nan nan nan nan nan nan nan nan nan nan nan nan nan nan nan nan nan nan nan nan nan nan nan nan nan nan nan nan nan nan nan nan nan nan nan nan nan
nan nan nan nan nan nan nan nan nan nan nan nan nan nan nan nan nan nan nan nan nan nan nan nan nan nan nan nan nan nan nan nan nan nan nan nan nan nan nan nan nan nan nan nan nan nan nan nan nan nan nan nan nan nan nan nan nan nan nan nan nan nan nan nan nan nan nan nan nan nan nan nan nan nan nan nan nan nan nan nan nan nan nan nan nan nan
nan nan nan nan nan nan nan nan nan nan nan nan nan nan nan nan nan nan nan nan nan nan nan nan nan nan nan nan nan nan nan nan nan nan nan nan nan nan nan nan nan nan nan nan nan nan nan nan nan nan nan nan nan nan nan nan nan nan nan nan nan nan nan nan nan nan nan nan nan nan nan nan nan nan nan nan nan nan nan nan nan nan nan nan nan nan
nan nan nan nan nan nan nan nan nan nan nan nan nan nan nan nan nan nan nan nan nan nan nan nan nan nan nan nan nan nan nan nan nan nan nan nan nan nan nan nan nan nan nan nan nan nan nan nan nan nan nan nan nan nan nan nan nan nan nan nan nan nan nan nan nan nan nan nan nan nan nan nan nan nan nan nan nan nan nan nan nan nan nan nan nan nan
nan nan nan nan nan nan nan nan nan nan nan nan nan nan nan nan nan nan nan nan nan nan nan nan nan nan nan nan nan nan nan nan nan nan nan nan nan nan nan nan nan nan nan nan nan nan nan nan nan nan nan nan nan nan nan nan nan nan nan nan nan nan nan nan nan nan nan nan nan nan nan nan nan nan nan nan nan nan nan nan nan nan nan nan nan nan